Regional Weather Roundup
Issued by NWS Huntsville, AL

Home | Current Version | Previous Version | Text Only | Print | Product List | Glossary On
Versions: 1 2 3 4 5 6 7 8 9 10 11 12 13 14 15 16 17 18 19 20 21 22 23 24 25 26 27 28
000
ASUS44 KHUN 182310
RWRHUN

WEATHER ROUNDUP FOR THE TENNESSEE VALLEY
NATIONAL WEATHER SERVICE HUNTSVILLE AL
500 PM CST MON DEC 18 2017

ALZ001>004-190000-
NORTHWEST ALABAMA

CITY           SKY/WX    TMP DP  RH WIND       PRES   REMARKS
COURTLAND HCN    N/A     57 N/A N/A CALM        N/A
RUSSELLVILLE     N/A     54 N/A N/A MISG        N/A
SHOALS AIRPORT CLEAR     53  45  74 W6        30.16S
SHOALS TVA RES   N/A     55 N/A N/A MISG        N/A
$$

ALZ005>007-016-190000-
NORTH CENTRAL ALABAMA

CITY           SKY/WX    TMP DP  RH WIND       PRES   REMARKS
CULLMAN AG STN   N/A     55 N/A N/A SW3         N/A
DECATUR AP     CLEAR     54  49  83 S3        30.15F
HUNTSVILLE AP  PTCLDY    55  51  86 CALM      30.15S
MERIDIANVILLE  CLEAR     54  46  76 CALM      30.15S
REDSTONE ARSN  CLEAR     53  50  92 S3        30.14S
VINEMONT AP    FAIR      53  49  87 CALM      30.18F
$$

ALZ008>010-190000-
NORTHEAST ALABAMA

CITY           SKY/WX    TMP DP  RH WIND       PRES   REMARKS
ALBERTVILLE    PTCLDY    52  52 100 S6        30.15F
FORT PAYNE     CLEAR     52  46  82 CALM      30.15F
SCOTTSBORO AP  FOG       48  48 100 CALM      30.16S VSB 1
SCOTTSBORO HCN   N/A     48 N/A N/A MISG        N/A
VALLEY HEAD      N/A     48 N/A N/A MISG        N/A
$$

TNZ076-096-097-190000-
SOUTHEASTERN MIDDLE TENNESSEE

CITY           SKY/WX    TMP DP  RH WIND       PRES   REMARKS
TULLAHOMA      CLEAR     48  46  93 CALM      30.14S
WINCHESTER     CLEAR     54  46  76 W3        30.15S
$$

...SURROUNDING SITES...

CITY           SKY/WX    TMP DP  RH WIND       PRES   REMARKS
ATLANTA        MOCLDY    58  55  90 SW6       30.17R
ANNISTON       CLOUDY    53  50  89 CALM      30.18S
BIRMINGHAM     MOCLDY    57  52  83 CALM      30.19S
CHATTANOOGA    PTCLDY    51  47  86 NW3       30.15R
CORINTH        FAIR      52  46  82 W5        30.16S
DALTON         CLEAR     52  50  93 SE3       30.17F
GADSDEN        PTCLDY    52  52 100 CALM      30.18S
GOLDEN TRNGL   PTCLDY    57  53  86 S5        30.18S
HALEYVILLE     FAIR      50  50 100 SW6       30.18F
JACKSON TN     CLOUDY    48  44  86 SW7       30.16S
MEMPHIS        CLOUDY    47  43  86 SW7       30.17F
NASHVILLE      PTCLDY    51  44  77 W3        30.15R
OXFORD MS      CLOUDY    46  45  93 SW5       30.19F
ROME           CLEAR     52  51  97 CALM      30.16S
SAVANNAH       CLEAR     54  48  82 CALM      30.15S
SELMER         CLEAR     48  45  87 W3        30.15S
TUPELO         PTCLDY    55  48  77 SW5       30.17S
TUSCALOOSA     MOCLDY    56  55  97 S5        30.18S
$$

...GULF COAST WEATHER...

CITY           SKY/WX    TMP DP  RH WIND       PRES   REMARKS
GULFPORT       CLOUDY    68  67  96 CALM      30.17R FOG
PASCAGOULA     CLOUDY    68  66  93 CALM      30.18R
MOBILE         CLOUDY    66  64  93 N5        30.19R FOG
GULF SHORES    CLOUDY    69  69 100 W5        30.18R
PENSACOLA      MOCLDY    70  67  90 W3        30.17R
DESTIN         PTCLDY    73  68  84 SW3       30.16S HAZE
PANAMA CITY    FOG       68  68 100 CALM      30.18S VSB 3/8
APPALACHICOLA  CLOUDY    73  73 100 SW6       30.19R
$$





USA.gov is the U.S. government's official web portal to all federal, state and local government web resources and services.